Ephrata, WA

4:19 AM PST on February 24, 2018 (GMT -0800)
Ephrata Municipal

Weather History for KEPH - October, 2015

Change the Weather History Date:

Monday, October 5, 2015

  Actual Average Record
Temperature  
Mean Temperature 59 °F 56 °F  
Max Temperature 75 °F 69 °F 85 °F (1971)
Min Temperature 42 °F 43 °F 33 °F (1982)
Degree Days  
Heating Degree Days 6 9  
Month to date heating degree days 10 43  
Since 1 July heating degree days 113 170  
Cooling Degree Days 0 0  
Month to date cooling degree days 3 0  
Year to date cooling degree days 1277 769  
Growing Degree Days 10 (Base 50)    
Moisture  
Dew Point 37 °F    
Average Humidity 46    
Maximum Humidity 66    
Minimum Humidity 25    
Precipitation  
Precipitation 0.00 in 0.01 in 0.25 in (1950)
Month to date precipitation T 0.06  
Year to date precipitation 4.36 5.08  
Sea Level Pressure  
Sea Level Pressure 29.96 in    
Wind  
Wind Speed 6 mph (NNW)    
Max Wind Speed 10 mph    
Max Gust Speed 14 mph    
Visibility 10 miles    
Events      
T = Trace of Precipitation, MM = Missing Value Source: NWS Daily Summary

Daily Weather History Graph

Daily Weather History Graph

Search for Another Location

Airport or City:

Trip Planner

Search our weather history database for the weather conditions in past years. The results will help you decide how hot, cold, wet, or windy it might be!

Date:

Astronomy

Oct. 05, 2015 Rise Set
Actual Time 7:02 AM PDT 6:29 PM PDT
Civil Twilight 6:31 AM PDT 7:00 PM PDT
Nautical Twilight 5:56 AM PDT 7:35 PM PDT
Astronomical Twilight 5:20 AM PDT 8:11 PM PDT
Moon No Moon Rise 2:57 PM PDT (10/5)
Length of Visible Light 12h 28m
Length of Day
11h 27m
Last Quarter, 41% of the Moon is Illuminated
Oct 5
Last Quarter
Oct 12
New
Oct 20
First Quarter
Oct 27
Full
Nov 3
Last Quarter

Hourly Weather History & Observations

Time (PDT) Temp. Dew Point Humidity Pressure Visibility Wind Dir Wind Speed Gust Speed Precip Events Conditions
12:53 AM 57.0 °F 36.0 °F 45% 29.91 in 10.0 mi NNW 8.1 mph - N/A   Clear
1:53 AM 55.9 °F 36.0 °F 47% 29.91 in 10.0 mi NNW 8.1 mph - N/A   Clear
2:53 AM 54.0 °F 37.0 °F 53% 29.93 in 10.0 mi North 4.6 mph - N/A   Clear
3:53 AM 52.0 °F 37.0 °F 57% 29.93 in 10.0 mi NW 5.8 mph - N/A   Clear
4:53 AM 46.9 °F 36.0 °F 66% 29.94 in 10.0 mi North 8.1 mph - N/A   Clear
5:53 AM 48.9 °F 37.0 °F 64% 29.96 in 10.0 mi NNW 5.8 mph - N/A   Clear
6:53 AM 51.1 °F 37.9 °F 61% 29.97 in 10.0 mi NW 9.2 mph - N/A   Clear
7:53 AM 50.0 °F 37.9 °F 63% 29.99 in 10.0 mi NNW 5.8 mph - N/A   Clear
8:53 AM 55.9 °F 39.0 °F 53% 30.01 in 10.0 mi NNE 6.9 mph - N/A   Clear
9:53 AM 61.0 °F 39.9 °F 46% 30.01 in 10.0 mi NNE 8.1 mph - N/A   Clear
10:53 AM 64.9 °F 39.0 °F 39% 30.01 in 10.0 mi NE 6.9 mph - N/A   Clear
11:53 AM 69.1 °F 37.9 °F 32% 29.99 in 10.0 mi NE 8.1 mph - N/A   Clear
12:53 PM 70.0 °F 37.9 °F 31% 29.98 in 10.0 mi Calm Calm - N/A   Clear
1:53 PM 73.0 °F 37.9 °F 28% 29.96 in 10.0 mi Variable 4.6 mph - N/A   Clear
2:53 PM 73.9 °F 37.0 °F 26% 29.94 in 10.0 mi Variable 5.8 mph - N/A   Clear
3:53 PM 73.9 °F 37.0 °F 26% 29.94 in 10.0 mi South 3.5 mph - N/A   Clear
4:53 PM 73.9 °F 35.1 °F 24% 29.94 in 10.0 mi SSE 5.8 mph - N/A   Clear
5:53 PM 71.1 °F 37.0 °F 29% 29.94 in 10.0 mi SW 5.8 mph - N/A   Clear
6:53 PM 66.0 °F 37.0 °F 34% 29.94 in 10.0 mi WNW 3.5 mph - 0.00 in   Clear
7:53 PM 64.0 °F 36.0 °F 35% 29.95 in 10.0 mi NW 6.9 mph - N/A   Clear
8:53 PM 62.1 °F 34.0 °F 35% 29.96 in 10.0 mi NW 9.2 mph - N/A   Clear
9:53 PM 59.0 °F 33.1 °F 38% 29.96 in 10.0 mi Calm Calm - N/A   Clear
10:53 PM 55.9 °F 34.0 °F 44% 29.97 in 10.0 mi North 5.8 mph - N/A   Clear
11:53 PM 57.0 °F 35.1 °F 44% 29.97 in 10.0 mi NNW 6.9 mph - N/A   Clear